Location: Arcusa
(42.3167°N, 0.0833°W)
Time: 19:18:14
(UTC+00:00)

BREEZE-M DEB (TANK) - Pass Details

Date: 25 January 2020
Orbit: 322 x 11938 km, 49.7° (Epoch: 27 February)

Event Time Altitude Azimuth Distance (km) Brightness Sun altitude
Exits shadow 05:20:50 39° 344° (NNW) 927 4.3 -22.1°
Maximum altitude 05:21:48 49° 27° (NNE) 919 4.6 -21.9°
Drops below altitude 10° 05:29:48 10° 102° (ESE) 4,111 9.0 -20.5°
Sets 05:36:01 0° 107° (ESE) 6,659 10.5 -19.3°
